MTN7303 KBWI-KEWR

Flight info

Callsign MTN7303
Flight time 0h 55m
Altitude 7000
Route BELAY HAPPS T447 HOSKR ARD METRO
Aircraft C208/L-SDFGR/C

Departure

Time 2026-04-20 00:29
Airport Baltimore/Washington International Thurgood Marshall Airport (KBWI)

Arrival

Time 2026-04-20 01:25
Airport Newark Liberty International Airport (KEWR)
Time Latitude Longitude Altitude Speed Heading
2026-04-19 23:55 39.18744 -76.66645 166 ft 0 kts 53°
2026-04-20 00:18 39.18745 -76.66640 170 ft 2 kts 92°
2026-04-20 00:19 39.18724 -76.66636 165 ft 0 kts 183°
2026-04-20 00:20 39.18722 -76.66637 165 ft 2 kts 183°
2026-04-20 00:20 39.18693 -76.66638 164 ft 6 kts 197°
2026-04-20 00:20 39.18616 -76.66624 161 ft 16 kts 159°
2026-04-20 00:21 39.18512 -76.66586 156 ft 12 kts 142°
2026-04-20 00:21 39.18480 -76.66557 155 ft 0 kts 143°
2026-04-20 00:21 39.18466 -76.66544 157 ft 12 kts 144°
2026-04-20 00:21 39.18333 -76.66417 155 ft 32 kts 132°
2026-04-20 00:22 39.18257 -76.66241 154 ft 19 kts 144°
2026-04-20 00:22 39.18179 -76.66168 154 ft 10 kts 152°
2026-04-20 00:22 39.18123 -76.66116 154 ft 18 kts 142°
2026-04-20 00:22 39.17948 -76.65974 147 ft 40 kts 147°
2026-04-20 00:23 39.17750 -76.65814 145 ft 34 kts 147°
2026-04-20 00:23 39.17629 -76.65716 144 ft 11 kts 147°
2026-04-20 00:23 39.17521 -76.65644 140 ft 23 kts 175°
2026-04-20 00:23 39.17422 -76.65581 141 ft 16 kts 94°
2026-04-20 00:24 39.17364 -76.65521 140 ft 8 kts 182°
2026-04-20 00:24 39.17361 -76.65521 140 ft 0 kts 182°
2026-04-20 00:27 39.17313 -76.65528 139 ft 13 kts 195°
2026-04-20 00:27 39.17281 -76.65594 139 ft 3 kts 273°
2026-04-20 00:28 39.17282 -76.65606 139 ft 13 kts 273°
2026-04-20 00:28 39.17300 -76.65987 143 ft 70 kts 272°
2026-04-20 00:28 39.17357 -76.66779 221 ft 99 kts 273°
2026-04-20 00:28 39.17381 -76.67669 473 ft 100 kts 262°
2026-04-20 00:29 39.17310 -76.68588 702 ft 107 kts 271°
2026-04-20 00:29 39.17420 -76.69604 905 ft 121 kts 273°
2026-04-20 00:29 39.17521 -76.70705 1132 ft 127 kts 269°
2026-04-20 00:29 39.17623 -76.71863 1353 ft 131 kts 267°
2026-04-20 00:30 39.17679 -76.73025 1627 ft 127 kts 250°
2026-04-20 00:30 39.17257 -76.73911 1895 ft 112 kts 210°
2026-04-20 00:30 39.16571 -76.74280 2166 ft 106 kts 183°
2026-04-20 00:30 39.15869 -76.74076 2434 ft 106 kts 159°
2026-04-20 00:31 39.15242 -76.73566 2681 ft 106 kts 159°
2026-04-20 00:31 39.14614 -76.73076 2922 ft 105 kts 160°
2026-04-20 00:31 39.13991 -76.72581 3165 ft 106 kts 160°
2026-04-20 00:31 39.13356 -76.72077 3430 ft 109 kts 160°
2026-04-20 00:32 39.12708 -76.71560 3668 ft 110 kts 160°
2026-04-20 00:32 39.12052 -76.71034 3907 ft 112 kts 160°
2026-04-20 00:32 39.11390 -76.70504 4150 ft 112 kts 161°
2026-04-20 00:32 39.10735 -76.69980 4389 ft 113 kts 162°
2026-04-20 00:33 39.10050 -76.69432 4594 ft 116 kts 162°
2026-04-20 00:33 39.09346 -76.68873 4729 ft 124 kts 161°
2026-04-20 00:33 39.08604 -76.68251 4858 ft 133 kts 154°
2026-04-20 00:33 39.08141 -76.67092 4987 ft 164 kts 108°
2026-04-20 00:34 39.08186 -76.65579 5119 ft 171 kts 94°
2026-04-20 00:34 39.08268 -76.64048 5250 ft 172 kts 96°
2026-04-20 00:34 39.08330 -76.62498 5349 ft 174 kts 96°
2026-04-20 00:34 39.08390 -76.60939 5472 ft 176 kts 96°
2026-04-20 00:35 39.08448 -76.59331 5486 ft 184 kts 95°
2026-04-20 00:35 39.08514 -76.57664 5491 ft 189 kts 95°
2026-04-20 00:35 39.08580 -76.55961 5491 ft 191 kts 95°
2026-04-20 00:35 39.08648 -76.54249 5493 ft 192 kts 95°
2026-04-20 00:36 39.08714 -76.52525 5492 ft 194 kts 95°
2026-04-20 00:36 39.08781 -76.50787 5491 ft 194 kts 95°
2026-04-20 00:36 39.08846 -76.49071 5484 ft 194 kts 93°
2026-04-20 00:36 39.08914 -76.47315 5486 ft 193 kts 93°
2026-04-20 00:37 39.09020 -76.45617 5483 ft 196 kts 83°
2026-04-20 00:37 39.09471 -76.43944 5483 ft 197 kts 73°
2026-04-20 00:37 39.09924 -76.42286 5484 ft 197 kts 75°
2026-04-20 00:37 39.10367 -76.40618 5484 ft 197 kts 75°
2026-04-20 00:38 39.10816 -76.38951 5508 ft 196 kts 75°
2026-04-20 00:38 39.11265 -76.37289 5509 ft 197 kts 75°
2026-04-20 00:38 39.11715 -76.35626 5514 ft 198 kts 75°
2026-04-20 00:38 39.12166 -76.33954 5512 ft 197 kts 75°
2026-04-20 00:39 39.12615 -76.32288 5513 ft 197 kts 75°
2026-04-20 00:39 39.13066 -76.30617 5514 ft 197 kts 75°
2026-04-20 00:39 39.13516 -76.28948 5513 ft 197 kts 75°
2026-04-20 00:39 39.13963 -76.27284 5512 ft 197 kts 75°
2026-04-20 00:40 39.14410 -76.25620 5511 ft 196 kts 75°
2026-04-20 00:40 39.14859 -76.23954 5512 ft 197 kts 74°
2026-04-20 00:40 39.15548 -76.22427 5508 ft 200 kts 47°
2026-04-20 00:40 39.16577 -76.21225 5551 ft 197 kts 40°
2026-04-20 00:41 39.17579 -76.20051 5668 ft 192 kts 41°
2026-04-20 00:41 39.18555 -76.18900 5787 ft 189 kts 40°
2026-04-20 00:41 39.19527 -76.17767 5907 ft 188 kts 40°
2026-04-20 00:41 39.20490 -76.16634 6035 ft 187 kts 40°
2026-04-20 00:42 39.21453 -76.15511 6156 ft 187 kts 40°
2026-04-20 00:42 39.22413 -76.14380 6276 ft 187 kts 40°
2026-04-20 00:42 39.23372 -76.13257 6385 ft 186 kts 38°
2026-04-20 00:42 39.24328 -76.12140 6505 ft 185 kts 39°
2026-04-20 00:43 39.25280 -76.11025 6622 ft 185 kts 39°
2026-04-20 00:43 39.26229 -76.09912 6738 ft 184 kts 38°
2026-04-20 00:43 39.27176 -76.08800 6858 ft 184 kts 38°
2026-04-20 00:43 39.28119 -76.07693 6977 ft 183 kts 38°
2026-04-20 00:44 39.29072 -76.06576 7011 ft 188 kts 38°
2026-04-20 00:44 39.30050 -76.05431 7016 ft 192 kts 39°
2026-04-20 00:44 39.31038 -76.04267 7017 ft 194 kts 39°
2026-04-20 00:44 39.32044 -76.03083 7021 ft 196 kts 39°
2026-04-20 00:45 39.33052 -76.01895 7018 ft 197 kts 39°
2026-04-20 00:45 39.34062 -76.00705 7022 ft 197 kts 39°
2026-04-20 00:45 39.35081 -75.99508 7017 ft 198 kts 39°
2026-04-20 00:45 39.36098 -75.98308 7023 ft 198 kts 39°
2026-04-20 00:46 39.37119 -75.97105 7020 ft 198 kts 39°
2026-04-20 00:46 39.38132 -75.95911 7021 ft 198 kts 39°
2026-04-20 00:46 39.39155 -75.94705 7016 ft 198 kts 39°
2026-04-20 00:46 39.40173 -75.93503 7016 ft 199 kts 39°
2026-04-20 00:47 39.41198 -75.92293 7016 ft 200 kts 39°
2026-04-20 00:47 39.42229 -75.91076 7017 ft 200 kts 39°
2026-04-20 00:47 39.43257 -75.89860 7020 ft 200 kts 39°
2026-04-20 00:47 39.44287 -75.88644 7025 ft 200 kts 39°
2026-04-20 00:48 39.45317 -75.87428 7026 ft 201 kts 39°
2026-04-20 00:48 39.46329 -75.86231 7027 ft 200 kts 39°
2026-04-20 00:48 39.47357 -75.85014 7028 ft 200 kts 39°
2026-04-20 00:48 39.48389 -75.83792 7030 ft 200 kts 39°
2026-04-20 00:49 39.49419 -75.82574 7029 ft 201 kts 39°
2026-04-20 00:49 39.50445 -75.81357 7031 ft 200 kts 39°
2026-04-20 00:49 39.51477 -75.80133 7035 ft 202 kts 39°
2026-04-20 00:49 39.52509 -75.78911 7035 ft 202 kts 39°
2026-04-20 00:50 39.53543 -75.77685 7031 ft 201 kts 39°
2026-04-20 00:50 39.54579 -75.76458 7033 ft 201 kts 39°
2026-04-20 00:50 39.55609 -75.75236 7031 ft 201 kts 39°
2026-04-20 00:50 39.56639 -75.74011 7033 ft 201 kts 39°
2026-04-20 00:51 39.57664 -75.72793 7034 ft 200 kts 39°
2026-04-20 00:51 39.58696 -75.71568 7035 ft 201 kts 39°
2026-04-20 00:51 39.59725 -75.70344 7042 ft 201 kts 39°
2026-04-20 00:51 39.60756 -75.69115 7044 ft 202 kts 39°
2026-04-20 00:52 39.61790 -75.67886 7043 ft 202 kts 39°
2026-04-20 00:52 39.62827 -75.66651 7043 ft 202 kts 39°
2026-04-20 00:52 39.63865 -75.65416 7042 ft 202 kts 39°
2026-04-20 00:52 39.64898 -75.64183 7042 ft 202 kts 39°
2026-04-20 00:53 39.65938 -75.62943 7042 ft 202 kts 39°
2026-04-20 00:53 39.66974 -75.61707 7043 ft 202 kts 39°
2026-04-20 00:53 39.68009 -75.60471 7045 ft 203 kts 39°
2026-04-20 00:53 39.69032 -75.59242 7044 ft 203 kts 40°
2026-04-20 00:54 39.70064 -75.58000 7045 ft 203 kts 40°
2026-04-20 00:54 39.71103 -75.56748 7045 ft 203 kts 39°
2026-04-20 00:54 39.72144 -75.55498 7043 ft 203 kts 39°
2026-04-20 00:54 39.73181 -75.54250 7043 ft 203 kts 39°
2026-04-20 00:55 39.74215 -75.53004 7043 ft 204 kts 39°
2026-04-20 00:55 39.75258 -75.51747 7042 ft 204 kts 40°
2026-04-20 00:55 39.76297 -75.50495 7045 ft 204 kts 40°
2026-04-20 00:55 39.77336 -75.49243 7045 ft 203 kts 39°
2026-04-20 00:56 39.78366 -75.48000 7046 ft 203 kts 39°
2026-04-20 00:56 39.79404 -75.46747 7045 ft 203 kts 39°
2026-04-20 00:56 39.80438 -75.45500 7043 ft 203 kts 39°
2026-04-20 00:56 39.81472 -75.44251 7056 ft 203 kts 39°
2026-04-20 00:57 39.82507 -75.42998 7057 ft 203 kts 39°
2026-04-20 00:57 39.83537 -75.41754 7052 ft 202 kts 39°
2026-04-20 00:57 39.84563 -75.40513 7054 ft 201 kts 39°
2026-04-20 00:57 39.85585 -75.39275 7055 ft 200 kts 39°
2026-04-20 00:58 39.86592 -75.38055 7055 ft 200 kts 39°
2026-04-20 00:58 39.87613 -75.36820 7054 ft 200 kts 39°
2026-04-20 00:58 39.88630 -75.35588 7053 ft 200 kts 39°
2026-04-20 00:58 39.89650 -75.34352 7052 ft 200 kts 39°
2026-04-20 00:59 39.90669 -75.33116 7052 ft 200 kts 39°
2026-04-20 00:59 39.91687 -75.31880 7054 ft 200 kts 39°
2026-04-20 00:59 39.92707 -75.30643 7051 ft 200 kts 39°
2026-04-20 00:59 39.93727 -75.29404 7051 ft 200 kts 39°
2026-04-20 01:00 39.94745 -75.28166 7051 ft 200 kts 39°
2026-04-20 01:00 39.95762 -75.26931 7051 ft 200 kts 39°
2026-04-20 01:00 39.96780 -75.25692 7067 ft 200 kts 39°
2026-04-20 01:00 39.97802 -75.24448 7062 ft 201 kts 39°
2026-04-20 01:01 39.98825 -75.23205 7063 ft 201 kts 39°
2026-04-20 01:01 39.99834 -75.21978 7063 ft 201 kts 39°
2026-04-20 01:01 40.00858 -75.20730 7060 ft 201 kts 39°
2026-04-20 01:01 40.01881 -75.19482 7062 ft 201 kts 39°
2026-04-20 01:02 40.02906 -75.18236 7062 ft 202 kts 39°
2026-04-20 01:02 40.03930 -75.16985 7062 ft 201 kts 40°
2026-04-20 01:02 40.04953 -75.15737 7065 ft 202 kts 39°
2026-04-20 01:02 40.05972 -75.14492 7065 ft 201 kts 39°
2026-04-20 01:03 40.06999 -75.13240 7065 ft 201 kts 39°
2026-04-20 01:03 40.08019 -75.11991 7063 ft 201 kts 40°
2026-04-20 01:03 40.09043 -75.10742 7060 ft 202 kts 39°
2026-04-20 01:03 40.10066 -75.09490 7059 ft 201 kts 39°
2026-04-20 01:04 40.11092 -75.08236 7058 ft 201 kts 39°
2026-04-20 01:04 40.12108 -75.06993 7059 ft 201 kts 39°
2026-04-20 01:04 40.13133 -75.05739 7057 ft 201 kts 39°
2026-04-20 01:04 40.14152 -75.04489 7055 ft 200 kts 39°
2026-04-20 01:05 40.15164 -75.03251 7054 ft 199 kts 39°
2026-04-20 01:05 40.16177 -75.02008 7060 ft 199 kts 39°
2026-04-20 01:05 40.17181 -75.00776 7056 ft 199 kts 39°
2026-04-20 01:05 40.18180 -74.99553 7057 ft 199 kts 39°
2026-04-20 01:06 40.19194 -74.98307 7056 ft 199 kts 39°
2026-04-20 01:06 40.20219 -74.97049 7056 ft 200 kts 39°
2026-04-20 01:06 40.21214 -74.95826 7058 ft 200 kts 39°
2026-04-20 01:06 40.22240 -74.94566 7007 ft 202 kts 39°
2026-04-20 01:07 40.23259 -74.93313 7007 ft 201 kts 39°
2026-04-20 01:07 40.24278 -74.92058 7008 ft 201 kts 39°
2026-04-20 01:07 40.25290 -74.90810 7002 ft 200 kts 40°
2026-04-20 01:07 40.26240 -74.89473 7002 ft 201 kts 44°
2026-04-20 01:08 40.27199 -74.88133 7001 ft 201 kts 43°
2026-04-20 01:08 40.28152 -74.86807 7000 ft 200 kts 43°
2026-04-20 01:08 40.29108 -74.85471 7003 ft 201 kts 44°
2026-04-20 01:08 40.30061 -74.84133 7005 ft 201 kts 44°
2026-04-20 01:09 40.31013 -74.82798 7006 ft 201 kts 44°
2026-04-20 01:09 40.31983 -74.81442 6833 ft 205 kts 43°
2026-04-20 01:09 40.32958 -74.80074 6643 ft 206 kts 44°
2026-04-20 01:09 40.33936 -74.78697 6470 ft 206 kts 44°
2026-04-20 01:10 40.34916 -74.77316 6276 ft 207 kts 44°
2026-04-20 01:10 40.36875 -74.74560 5880 ft 208 kts 45°
2026-04-20 01:10 40.37861 -74.73173 5680 ft 208 kts 46°
2026-04-20 01:11 40.38847 -74.71781 5484 ft 208 kts 46°
2026-04-20 01:11 40.39832 -74.70393 5288 ft 208 kts 46°
2026-04-20 01:11 40.40816 -74.69006 5093 ft 208 kts 47°
2026-04-20 01:11 40.41796 -74.67616 4900 ft 207 kts 50°
2026-04-20 01:12 40.42507 -74.66008 4655 ft 202 kts 76°
2026-04-20 01:12 40.42903 -74.64262 4410 ft 199 kts 79°
2026-04-20 01:12 40.43318 -74.62541 4169 ft 197 kts 78°
2026-04-20 01:12 40.43729 -74.60838 3920 ft 194 kts 79°
2026-04-20 01:13 40.43994 -74.59718 3757 ft 194 kts 80°
2026-04-20 01:13 40.44396 -74.58037 3548 ft 190 kts 80°
2026-04-20 01:13 40.44780 -74.56418 3421 ft 183 kts 81°
2026-04-20 01:13 40.45153 -74.54841 3296 ft 179 kts 81°
2026-04-20 01:14 40.45521 -74.53290 3167 ft 177 kts 82°
2026-04-20 01:14 40.45883 -74.51757 3041 ft 175 kts 82°
2026-04-20 01:14 40.46244 -74.50232 2918 ft 174 kts 82°
2026-04-20 01:14 40.46602 -74.48717 2823 ft 172 kts 82°
2026-04-20 01:15 40.46952 -74.47249 2816 ft 165 kts 83°
2026-04-20 01:15 40.47284 -74.45827 2809 ft 161 kts 83°
2026-04-20 01:15 40.47616 -74.44428 2808 ft 159 kts 83°
2026-04-20 01:15 40.47942 -74.43043 2808 ft 159 kts 83°
2026-04-20 01:16 40.48269 -74.41659 2809 ft 159 kts 83°
2026-04-20 01:16 40.48595 -74.40274 2807 ft 159 kts 83°
2026-04-20 01:16 40.48919 -74.38907 2810 ft 158 kts 83°
2026-04-20 01:16 40.49243 -74.37521 2812 ft 159 kts 83°
2026-04-20 01:17 40.49572 -74.36129 2817 ft 159 kts 82°
2026-04-20 01:17 40.49903 -74.34739 2819 ft 159 kts 81°
2026-04-20 01:17 40.50228 -74.33356 2818 ft 159 kts 82°
2026-04-20 01:17 40.50556 -74.31959 2818 ft 159 kts 81°
2026-04-20 01:18 40.50885 -74.30572 2818 ft 159 kts 82°
2026-04-20 01:18 40.51204 -74.29205 2819 ft 159 kts 81°
2026-04-20 01:18 40.51681 -74.27872 2739 ft 173 kts 56°
2026-04-20 01:18 40.52717 -74.26951 2546 ft 185 kts 26°
2026-04-20 01:19 40.53886 -74.26255 2354 ft 185 kts 28°
2026-04-20 01:19 40.55033 -74.25507 2155 ft 175 kts 29°
2026-04-20 01:19 40.56072 -74.24857 1937 ft 157 kts 30°
2026-04-20 01:19 40.57019 -74.24246 1728 ft 147 kts 30°
2026-04-20 01:20 40.57881 -74.23702 1729 ft 125 kts 29°
2026-04-20 01:20 40.58600 -74.23252 1712 ft 105 kts 31°
2026-04-20 01:20 40.59213 -74.22856 1689 ft 93 kts 33°
2026-04-20 01:20 40.59787 -74.22493 1633 ft 89 kts 32°
2026-04-20 01:21 40.60320 -74.22159 1608 ft 81 kts 32°
2026-04-20 01:21 40.60830 -74.21826 1659 ft 83 kts 33°
2026-04-20 01:21 40.61386 -74.21472 1652 ft 99 kts 31°
2026-04-20 01:21 40.62039 -74.21056 1605 ft 107 kts 31°
2026-04-20 01:22 40.62700 -74.20640 1533 ft 101 kts 30°
2026-04-20 01:22 40.63321 -74.20252 1410 ft 97 kts 31°
2026-04-20 01:22 40.63915 -74.19892 1275 ft 90 kts 32°
2026-04-20 01:22 40.64471 -74.19531 1053 ft 92 kts 33°
2026-04-20 01:23 40.65043 -74.19178 846 ft 90 kts 28°
2026-04-20 01:23 40.65594 -74.18837 683 ft 85 kts 38°
2026-04-20 01:23 40.66125 -74.18500 584 ft 85 kts 33°
2026-04-20 01:23 40.66668 -74.18136 455 ft 88 kts 30°
2026-04-20 01:24 40.67197 -74.17793 305 ft 83 kts 30°
2026-04-20 01:24 40.67711 -74.17467 134 ft 83 kts 28°
2026-04-20 01:24 40.68212 -74.17141 44 ft 80 kts 26°
2026-04-20 01:24 40.68676 -74.16856 21 ft 64 kts 27°
2026-04-20 01:25 40.68931 -74.16682 21 ft 31 kts 25°
2026-04-20 01:25 40.69148 -74.16591 23 ft 41 kts
2026-04-20 01:25 40.69384 -74.16606 21 ft 1 kts 353°
2026-04-20 01:25 40.69386 -74.16607 21 ft 3 kts 347°
2026-04-20 01:26 40.69426 -74.16688 22 ft 18 kts 295°
2026-04-20 01:26 40.69493 -74.16872 21 ft 18 kts 292°
2026-04-20 01:26 40.69503 -74.16982 21 ft 17 kts 226°
2026-04-20 01:26 40.69362 -74.17067 21 ft 27 kts 207°
2026-04-20 01:27 40.69177 -74.17185 21 ft 29 kts 206°
2026-04-20 01:27 40.69057 -74.17260 20 ft 12 kts 206°
2026-04-20 01:27 40.68957 -74.17324 21 ft 20 kts 206°
2026-04-20 01:27 40.68809 -74.17419 21 ft 27 kts 206°
2026-04-20 01:28 40.68636 -74.17528 22 ft 25 kts 205°
2026-04-20 01:28 40.68496 -74.17617 21 ft 20 kts 205°
2026-04-20 01:28 40.68352 -74.17709 21 ft 21 kts 205°
2026-04-20 01:28 40.68248 -74.17775 22 ft 12 kts 206°
2026-04-20 01:29 40.68189 -74.17810 21 ft 7 kts 204°
2026-04-20 01:29 40.68137 -74.17842 21 ft 14 kts 207°
2026-04-20 01:29 40.68013 -74.17928 21 ft 26 kts 208°
2026-04-20 01:29 40.67867 -74.18017 21 ft 16 kts 205°
2026-04-20 01:30 40.67777 -74.18076 21 ft 9 kts 207°
2026-04-20 01:30 40.67690 -74.18131 21 ft 18 kts 205°
2026-04-20 01:30 40.67559 -74.18214 21 ft 18 kts 205°
2026-04-20 01:31 40.67484 -74.18259 21 ft 6 kts 205°
2026-04-20 01:31 40.67441 -74.18284 21 ft 12 kts 201°
2026-04-20 01:31 40.67446 -74.18326 21 ft 4 kts 346°
2026-04-20 01:31 40.67460 -74.18332 21 ft 0 kts 341°